Terminal Aerodrome Forecast
Issued by NWS

Home | Current Version | Previous Version | Text Only | Print | Product List | Glossary On
Versions: 1 2 3 4 5 6 7 8 9 10 11 12 13 14 15 16 17 18 19 20 21 22 23 24 25 26 27 28 29 30 31 32 33
000
FTUS43 KDTX 280800 AAA
TAFYIP
TAF AMD
KYIP 280831Z 2809/2906 02005KT P6SM SCT022 BKN045
      TEMPO 2809/2812 BKN022 BKN045
     FM281600 36006KT P6SM SCT050
     FM290000 VRB04KT P6SM SCT250=

USA.gov is the U.S. government's official web portal to all federal, state and local government web resources and services.